Wind_Speed
21 22 23 24 25 25 26 27 29 30 31 31 32 33 32 32 32 33 33 33 33 34 33 33 34 34 33 33 33 33 33 33 32 32 31 31 31 30
21 22 23 24 24 26 27 27 28 29 30 30 31 32 32 31 32 32 32 33 33 33 34 34 34 34 34 34 34 34 35 35 34 34 33 32 32 31
21 22 23 24 24 25 25 26 27 28 29 29 30 31 32 31 31 33 33 34 34 34 34 34 35 34 34 34 35 35 35 35 35 35 34 34 34 33
20 21 21 23 24 25 25 26 26 27 27 28 29 30 31 31 32 32 33 35 36 36 36 35 34 35 34 35 35 35 35 35 36 36 35 35 35 35
19 19 20 20 21 23 23 24 25 26 26 27 28 30 31 31 32 33 33 34 35 35 36 35 34 34 35 35 34 35 35 36 36 37 37 36 36 36
19 18 19 19 20 22 22 23 24 25 25 26 27 28 30 30 31 31 32 33 34 34 34 34 34 34 34 34 35 35 35 35 35 35 36 36 36 37
18 18 18 19 20 21 21 22 23 24 25 25 26 27 28 29 30 30 31 30 32 32 32 33 34 35 35 35 35 35 35 36 35 35 36 36 36 36
17 17 18 19 20 21 21 22 23 24 24 24 25 26 26 28 29 29 29 29 30 31 31 32 32 33 34 34 34 35 35 36 36 36 36 37 37 37
16 17 18 19 19 20 21 22 22 23 22 23 24 24 25 26 27 28 28 28 28 29 30 29 30 31 32 33 34 34 35 35 35 36 36 36 37 37
17 17 18 18 18 19 20 20 21 21 22 22 22 23 24 25 25 26 27 27 28 28 28 29 29 29 30 31 32 33 34 34 35 36 36 36 37 37
17 18 18 18 18 18 18 20 20 21 22 22 22 23 23 23 23 25 26 27 27 27 27 27 27 27 29 30 31 32 33 33 34 34 35 36 37 38
18 18 18 18 18 17 18 19 19 20 21 22 22 22 23 23 23 23 24 24 25 25 26 27 27 27 27 28 29 30 32 33 33 34 35 35 36 37
18 18 17 17 17 17 18 18 18 19 20 20 21 21 22 22 23 23 23 24 25 26 26 26 26 27 27 28 29 30 31 32 33 33 34 35 35 35
18 18 18 18 18 18 18 18 19 20 20 20 20 21 21 22 22 23 23 23 24 25 26 26 26 26 27 27 28 28 29 29 30 31 32 33 33 34
18 18 19 19 19 19 19 19 19 20 20 20 20 21 21 21 22 22 23 23 23 23 24 24 25 25 25 26 27 27 27 27 28 29 31 32 32 33
20 20 20 20 21 20 20 20 20 20 20 20 21 21 21 21 21 22 23 22 22 23 23 23 23 24 24 25 25 25 25 25 26 27 29 31 32 33
21 21 21 21 22 22 21 21 21 21 21 21 20 20 20 20 20 20 21 21 22 22 22 23 23 23 24 24 24 25 25 26 26 27 28 29 31 32
22 22 22 22 22 22 22 21 21 21 20 20 20 20 20 19 19 19 19 20 21 21 21 22 22 22 23 23 24 25 25 25 26 26 27 27 28 30
23 23 22 22 22 22 21 21 21 21 20 19 19 19 19 18 18 18 18 19 20 20 20 21 21 21 22 22 23 24 24 25 26 27 27 27 27 28
23 23 23 22 22 22 21 21 21 21 20 19 18 18 17 16 16 16 17 17 17 18 18 19 20 20 21 21 22 23 24 24 25 26 26 27 27 28
24 24 23 23 22 22 21 21 20 20 19 18 17 17 16 16 16 15 16 16 16 16 17 17 18 18 19 19 20 21 22 23 24 24 25 25 26 26
23 23 23 23 22 21 20 20 19 18 18 17 16 16 15 15 15 15 15 16 16 16 16 16 16 17 17 18 19 19 20 21 22 23 24 24 25 25
22 22 22 21 20 20 19 19 18 18 17 16 16 15 15 15 15 15 15 15 15 15 16 15 15 16 16 17 17 18 18 19 19 21 22 23 24 25
Wind_Direction
276 271 268 266 263 262 261 260 258 256 256 255 254 254 253 251 251 252 252 251 252 251 249 248 247 247 248 248 248 249 249 249 248 248 248 249 248 248
279 274 272 269 266 265 263 261 260 258 257 255 255 254 253 251 251 252 252 250 251 251 251 249 248 248 248 249 250 250 250 249 248 248 249 249 249 248
283 279 275 271 267 267 265 262 261 259 258 257 256 254 252 251 252 251 251 251 251 251 251 250 249 249 250 250 250 250 249 249 248 249 248 247 247 247
287 284 279 273 269 268 267 263 262 262 260 258 257 254 253 253 253 252 252 254 253 251 252 251 250 250 250 250 250 249 248 249 249 249 248 248 247 247
292 287 282 278 273 270 267 264 263 262 262 260 258 256 254 255 255 255 255 255 252 252 252 251 252 252 252 251 250 250 249 249 249 248 248 248 248 247
294 288 283 281 278 274 271 269 267 265 264 263 260 259 257 257 257 256 257 257 254 252 252 252 253 253 253 252 250 250 249 248 248 247 247 247 247 246
295 289 285 281 280 277 274 272 270 267 265 264 262 260 260 260 257 257 257 257 254 252 252 252 252 251 251 251 250 248 247 246 247 247 247 247 247 246
298 292 291 287 283 281 279 276 274 269 266 264 264 263 261 262 261 259 259 258 256 254 253 253 252 252 252 251 250 248 246 246 247 247 247 247 247 247
301 296 295 292 288 284 281 279 277 272 268 266 265 266 265 266 264 263 262 261 259 257 255 253 253 253 251 250 249 248 247 248 249 248 247 246 247 248
303 300 299 296 292 287 284 281 280 275 272 268 268 269 269 269 266 263 262 263 261 259 256 255 254 254 251 249 248 247 247 249 250 249 248 247 247 248
305 303 302 300 297 293 289 286 283 278 273 270 268 269 268 268 267 264 261 262 261 259 257 257 257 255 252 250 248 248 248 250 252 251 251 249 247 248
310 308 306 302 300 298 294 291 288 284 279 275 272 270 269 267 267 264 262 261 262 261 258 259 258 256 254 253 250 250 250 251 252 252 251 250 248 248
311 309 307 305 304 303 300 295 292 290 285 279 276 274 271 268 267 265 264 263 264 261 259 258 258 257 256 254 252 251 251 251 251 250 249 248 248 248
313 310 308 307 306 302 300 297 295 294 291 285 280 278 274 271 268 266 265 264 263 260 259 260 260 257 256 254 253 253 252 251 250 249 247 247 247 247
315 313 311 311 309 304 299 298 297 295 292 287 284 281 277 273 268 265 264 263 263 260 259 260 260 258 256 254 252 251 252 251 250 250 249 248 248 248
317 315 313 311 310 307 302 297 296 295 294 290 287 283 279 275 271 267 265 262 261 261 260 259 261 260 258 255 252 250 251 251 251 251 252 251 251 251
315 315 314 312 309 307 303 299 296 295 294 292 288 286 283 277 271 268 264 262 262 261 261 261 261 261 259 256 254 252 252 253 254 253 252 252 252 252
314 315 314 312 310 307 304 301 298 297 295 294 291 288 284 277 272 270 267 265 265 264 263 262 261 260 259 258 257 256 254 254 254 254 253 251 252 254
315 314 314 312 309 308 307 304 301 299 297 296 294 290 285 280 274 270 267 267 266 265 264 264 264 262 261 259 257 255 255 254 255 256 257 257 255 255
315 314 313 312 311 309 308 305 303 301 299 296 294 290 283 279 276 271 268 266 266 265 265 265 265 264 264 263 261 257 256 256 254 255 256 258 256 255
314 314 314 314 313 311 309 307 304 303 301 297 294 291 285 281 278 274 270 268 267 267 267 268 269 269 268 267 266 261 259 258 257 256 257 258 258 258
315 315 315 315 314 312 310 308 306 302 301 297 292 290 287 283 279 276 273 269 267 265 264 264 266 268 268 268 268 263 260 259 259 258 259 261 261 260
320 319 319 318 316 314 310 307 304 302 302 300 295 291 288 287 282 277 273 270 267 265 262 260 261 264 267 268 266 263 262 261 260 260 261 260 260 260
Height
5735 5735 5734 5734 5734 5734 5735 5735 5737 5737 5739 5740 5741 5743 5744 5745 5746 5747 5749 5750 5752 5754 5755 5757 5759 5761 5762 5764 5766 5768 5770 5772 5774 5776 5778 5780 5782 5783
5729 5728 5727 5727 5726 5726 5726 5727 5727 5728 5729 5731 5732 5733 5734 5735 5736 5738 5739 5741 5742 5744 5746 5748 5749 5751 5753 5755 5757 5758 5760 5763 5764 5767 5769 5771 5773 5775
5722 5721 5720 5719 5719 5719 5718 5718 5719 5719 5721 5721 5722 5723 5725 5726 5727 5728 5730 5731 5732 5734 5736 5738 5739 5741 5743 5745 5747 5749 5751 5753 5755 5757 5759 5762 5764 5766
5716 5714 5713 5712 5711 5711 5711 5711 5711 5711 5712 5712 5713 5714 5716 5717 5718 5719 5720 5721 5723 5724 5726 5727 5729 5731 5733 5735 5736 5738 5740 5742 5745 5747 5749 5752 5754 5756
5709 5707 5706 5704 5704 5703 5703 5702 5702 5702 5703 5704 5704 5705 5706 5707 5708 5710 5711 5712 5713 5714 5716 5717 5719 5721 5722 5724 5726 5728 5730 5732 5734 5736 5738 5741 5744 5746
5704 5701 5700 5698 5697 5696 5696 5695 5694 5694 5694 5695 5696 5696 5697 5698 5699 5700 5701 5702 5703 5704 5705 5707 5709 5710 5712 5714 5716 5718 5719 5721 5723 5725 5728 5730 5733 5736
5698 5696 5694 5692 5691 5690 5689 5688 5687 5686 5686 5686 5687 5688 5689 5689 5690 5691 5691 5692 5693 5694 5696 5697 5699 5700 5702 5703 5705 5707 5709 5711 5713 5716 5718 5720 5723 5726
5693 5691 5688 5686 5684 5683 5681 5680 5679 5679 5679 5679 5679 5680 5681 5680 5681 5681 5682 5683 5684 5686 5686 5687 5688 5690 5691 5693 5695 5697 5699 5701 5703 5705 5708 5710 5713 5715
5688 5686 5683 5680 5678 5676 5675 5673 5672 5671 5671 5671 5671 5671 5672 5672 5672 5673 5673 5673 5675 5676 5676 5678 5679 5680 5681 5683 5684 5687 5689 5691 5693 5695 5698 5700 5702 5705
5683 5681 5678 5675 5673 5670 5668 5667 5666 5665 5664 5664 5664 5664 5664 5664 5664 5664 5664 5665 5666 5666 5667 5668 5669 5670 5672 5673 5675 5677 5679 5681 5683 5685 5687 5690 5692 5695
5679 5675 5673 5670 5667 5665 5663 5661 5659 5658 5657 5657 5656 5656 5656 5656 5656 5656 5656 5656 5657 5658 5659 5659 5660 5661 5662 5664 5665 5667 5669 5671 5673 5675 5677 5679 5682 5684
5674 5671 5668 5665 5662 5660 5658 5656 5654 5652 5651 5650 5649 5649 5649 5648 5648 5648 5648 5648 5649 5650 5650 5651 5651 5652 5653 5655 5657 5658 5660 5662 5663 5665 5667 5669 5671 5674
5670 5667 5663 5661 5658 5655 5653 5651 5648 5647 5645 5644 5643 5642 5641 5641 5641 5640 5640 5640 5641 5641 5642 5642 5643 5643 5645 5646 5648 5649 5650 5652 5653 5655 5657 5659 5662 5664
5666 5662 5659 5656 5654 5651 5648 5646 5643 5641 5639 5638 5636 5635 5634 5634 5633 5633 5633 5632 5632 5633 5633 5633 5634 5635 5636 5637 5639 5640 5641 5643 5645 5646 5648 5650 5652 5654
5662 5658 5655 5651 5648 5646 5643 5640 5638 5635 5633 5631 5630 5628 5627 5626 5625 5625 5625 5625 5624 5625 5625 5625 5626 5627 5627 5629 5630 5631 5633 5634 5636 5637 5639 5641 5643 5645
5657 5654 5650 5647 5643 5640 5637 5635 5632 5629 5627 5625 5623 5621 5620 5619 5618 5617 5617 5617 5617 5617 5617 5618 5618 5619 5619 5620 5622 5623 5624 5626 5627 5629 5630 5632 5633 5635
5653 5649 5645 5642 5638 5635 5632 5629 5626 5624 5621 5618 5616 5614 5613 5611 5610 5610 5609 5609 5609 5610 5610 5611 5611 5611 5612 5613 5614 5615 5617 5618 5619 5620 5621 5623 5624 5626
5647 5644 5640 5636 5633 5629 5626 5623 5620 5617 5614 5612 5610 5608 5606 5604 5603 5603 5602 5602 5602 5603 5603 5603 5604 5604 5605 5606 5607 5608 5609 5610 5611 5612 5613 5614 5615 5616
5642 5638 5634 5631 5627 5624 5620 5617 5614 5611 5608 5605 5603 5601 5599 5598 5597 5596 5595 5595 5595 5596 5596 5596 5597 5597 5598 5599 5600 5600 5601 5602 5602 5603 5604 5605 5606 5607
5637 5633 5629 5625 5621 5617 5614 5611 5607 5604 5602 5599 5597 5595 5593 5592 5591 5590 5590 5589 5589 5590 5590 5590 5590 5590 5591 5592 5592 5593 5593 5593 5594 5595 5596 5596 5597 5598
5631 5627 5623 5619 5615 5611 5607 5604 5601 5598 5595 5593 5591 5589 5588 5586 5585 5585 5584 5583 5583 5583 5584 5584 5583 5583 5583 5584 5585 5585 5585 5585 5586 5587 5588 5588 5589 5590
5625 5621 5616 5612 5608 5605 5601 5598 5595 5592 5590 5587 5586 5584 5582 5581 5580 5579 5578 5578 5577 5577 5578 5578 5578 5578 5578 5578 5578 5578 5578 5578 5578 5579 5580 5581 5581 5582
5619 5615 5610 5606 5603 5599 5595 5592 5589 5587 5584 5582 5580 5578 5577 5575 5574 5573 5573 5572 5572 5572 5572 5572 5572 5572 5572 5572 5572 5572 5572 5572 5572 5572 5573 5573 5574 5574